Wind_Speed
31 31 32 32 33 33 33 33 33 33 34 34 35 36 37 38 38 38 39 39 38 37 37 36 35 33 32 32 32 32 30 29 29 32 33 30 32 37 35 34 33 32 33 34 33 33 32 32 31 30 28 27 28 27 25 23 21 21 23 26 29 30 29 27 26 24 24 24 21 18 22 24 20 16 16 15 14 14 19 18 16 15 11 17 25 26 21 14
31 31 32 32 33 33 33 33 33 33 34 34 34 35 36 37 38 38 39 39 39 38 37 37 35 33 32 32 33 33 31 30 31 31 29 27 31 32 31 32 32 31 32 32 32 32 31 30 29 28 28 27 27 27 26 24 24 26 25 27 32 31 28 25 25 24 24 24 22 19 17 14 13 15 15 12 11 10 15 15 15 14 12 22 27 22 21 18
30 30 31 32 32 32 32 33 34 34 34 34 34 34 34 35 35 36 38 38 39 39 38 37 35 34 32 31 33 32 32 31 32 31 28 26 28 29 29 30 30 30 31 30 30 30 30 28 24 24 26 26 25 25 26 25 25 28 27 28 32 29 27 26 25 25 25 24 23 20 12 11 12 12 13 11 10 11 12 13 14 15 17 27 27 21 22 23
30 29 29 30 31 31 32 32 33 33 33 34 34 34 33 33 33 34 35 37 38 39 39 38 35 34 32 32 32 31 32 31 33 33 28 25 25 27 28 28 29 30 30 28 29 30 30 29 22 19 23 25 24 24 25 27 26 27 30 33 30 24 26 27 25 26 25 22 21 18 10 8 13 14 15 14 12 14 14 14 15 15 21 29 27 23 23 23
29 29 29 29 29 30 31 31 32 33 33 33 33 33 33 32 32 33 33 34 36 37 39 38 36 34 33 32 31 31 30 25 31 34 27 25 25 26 26 26 28 29 29 28 30 31 30 31 27 20 23 25 25 25 27 28 26 26 30 33 30 25 24 23 24 26 25 22 19 19 14 9 10 13 15 16 15 14 12 12 14 14 21 29 25 23 23 23
30 29 29 29 29 29 29 30 31 32 33 32 32 33 32 32 32 32 32 32 34 35 37 38 37 35 33 32 31 31 28 22 24 27 24 25 25 25 26 26 27 29 29 29 31 31 30 31 31 26 24 25 26 27 27 26 28 28 29 29 28 28 27 23 21 21 21 22 20 21 21 15 13 13 14 17 17 16 13 11 11 10 17 27 27 26 25 23
29 29 29 29 29 29 29 30 30 31 32 32 32 32 32 32 31 32 32 31 32 33 34 35 36 36 34 33 32 31 32 28 24 25 24 23 23 23 24 25 27 29 29 30 30 32 31 31 34 30 24 25 26 27 26 24 27 30 29 27 26 26 28 29 24 18 16 19 21 20 21 21 20 17 16 19 17 17 16 12 12 11 14 25 29 28 26 24
28 28 28 28 28 29 29 30 30 31 32 32 33 32 32 31 31 31 31 31 31 31 32 32 33 35 35 34 33 34 35 29 23 27 28 25 24 21 21 24 27 28 29 30 30 30 32 32 34 31 25 24 24 24 25 24 27 31 30 26 25 24 26 28 27 23 18 17 20 21 21 22 22 20 20 21 18 17 17 15 16 15 14 21 28 27 25 25
26 26 26 26 27 27 27 28 29 30 31 32 33 33 32 31 31 31 31 31 31 31 31 30 29 31 34 34 35 37 34 25 22 26 30 28 26 22 20 23 27 29 29 29 29 30 32 33 34 31 26 22 22 23 24 26 28 29 30 27 25 25 24 24 27 27 23 19 19 21 23 23 21 20 23 22 17 16 17 16 17 19 16 21 29 26 23 26
25 25 25 26 25 26 26 26 27 27 28 30 31 32 32 32 31 31 31 30 30 31 30 30 28 27 32 34 37 39 30 23 23 24 29 29 26 24 22 22 26 29 30 29 30 31 32 33 31 29 25 22 21 23 24 27 27 24 25 27 27 27 24 22 24 26 26 24 21 20 21 22 21 22 26 24 21 20 18 17 17 18 18 25 33 27 22 26
24 25 25 25 25 25 25 24 24 24 25 26 28 30 30 31 31 31 32 31 30 30 30 30 28 27 29 32 40 40 26 22 25 26 31 30 25 26 26 24 25 28 30 30 30 31 32 31 25 24 25 24 22 22 25 27 25 23 22 23 26 28 28 25 23 23 25 25 24 22 21 21 21 25 28 24 23 23 20 20 20 19 21 29 33 27 24 27
24 25 25 25 24 24 24 23 22 22 22 22 23 25 26 28 29 30 31 31 30 30 30 29 29 29 29 34 41 34 26 30 34 32 33 31 28 29 29 28 27 27 30 31 30 28 31 30 24 22 24 22 22 21 23 26 25 24 24 23 22 24 29 30 26 23 24 24 22 20 22 25 26 27 27 24 23 22 22 25 22 22 25 29 31 29 27 29
25 25 25 24 23 23 22 21 21 20 20 20 21 22 23 24 26 28 29 30 30 30 30 29 29 30 31 39 37 28 29 33 34 35 32 30 29 28 29 29 28 26 28 32 31 26 27 30 27 24 23 21 23 21 17 19 24 25 25 24 21 22 28 31 29 26 24 25 22 19 23 27 28 28 25 23 23 21 25 26 23 24 27 27 32 32 31 33
26 25 25 24 24 23 22 21 21 21 21 22 23 23 23 23 24 26 27 28 28 29 30 28 29 29 34 40 29 24 32 33 34 35 30 29 31 29 28 28 28 27 26 30 32 28 24 26 26 24 25 24 22 21 18 17 19 23 24 24 24 24 25 26 29 29 25 24 22 21 25 26 24 25 26 24 23 23 26 26 24 25 26 30 34 34 35 36
26 25 25 24 24 23 22 23 23 24 24 24 25 25 24 24 24 25 26 26 26 28 28 28 28 27 36 38 24 24 31 33 36 33 28 31 32 31 28 27 29 29 27 27 31 33 27 24 26 26 26 26 22 21 24 22 19 21 24 26 27 26 23 22 27 31 28 24 22 24 26 25 22 22 24 26 27 27 27 26 26 25 26 32 34 35 37 35
25 24 23 23 23 23 23 24 25 25 26 26 26 25 24 24 25 25 25 25 25 25 25 27 24 24 34 31 20 26 29 29 33 30 30 32 30 29 28 27 28 29 28 26 29 33 33 27 26 27 25 25 27 23 22 25 25 25 27 27 26 27 24 21 25 31 30 25 24 27 26 23 23 22 23 27 28 28 28 26 25 26 31 37 36 35 35 33
25 24 23 23 22 23 23 24 25 26 26 26 26 25 24 25 27 26 25 25 24 23 24 25 20 22 34 27 18 22 21 19 25 28 30 30 28 27 27 28 29 29 27 26 28 33 36 32 26 26 26 26 29 26 24 26 27 27 27 26 24 25 25 22 23 28 32 29 26 28 28 26 23 22 23 27 28 28 28 25 24 30 34 34 33 33 33 33
25 25 24 23 23 23 24 24 25 26 26 26 26 26 25 27 29 26 23 22 23 22 23 23 22 22 25 18 14 16 14 12 17 23 26 27 28 27 27 29 28 27 26 25 28 32 34 31 26 25 28 30 30 32 31 26 24 25 25 25 24 23 24 25 25 26 31 31 27 27 29 29 25 25 26 26 28 28 27 27 30 36 33 24 24 29 30 29
26 26 25 25 24 24 25 25 25 25 26 26 26 27 28 27 26 22 18 18 21 23 23 24 27 26 12 3 2 11 16 19 18 20 22 24 27 26 27 29 26 25 26 24 27 31 31 28 28 30 34 36 34 35 34 24 20 23 23 23 25 25 24 25 27 25 29 30 28 28 28 28 27 29 29 26 27 28 28 31 33 37 35 25 19 23 26 25
27 26 26 25 25 26 25 25 25 25 25 25 25 28 28 22 16 16 16 18 21 22 21 21 24 26 18 11 9 5 13 16 19 20 21 24 27 28 30 29 24 24 27 26 25 27 30 30 34 38 36 34 33 32 31 26 21 21 23 23 24 26 24 24 27 25 29 29 28 28 28 26 25 28 28 25 25 28 30 32 31 34 36 30 21 19 23 24
26 26 26 25 26 26 25 25 24 24 24 24 25 26 23 14 9 15 19 21 23 22 22 22 22 26 26 19 17 11 10 13 16 18 21 25 26 28 32 32 27 29 31 27 23 24 29 34 38 37 32 30 31 31 29 28 27 24 23 23 24 26 26 23 25 25 28 26 24 26 28 27 26 28 27 23 22 27 31 31 28 30 30 27 24 20 22 24
26 25 25 25 25 25 25 24 23 22 22 23 21 19 16 11 9 14 21 25 24 24 25 23 25 28 27 23 23 22 15 14 13 15 20 25 27 29 33 34 30 30 31 28 25 27 33 37 36 33 30 27 28 30 29 28 31 29 24 24 24 25 27 25 24 27 27 23 20 24 27 27 25 28 26 20 23 25 30 31 29 28 26 24 24 21 20 21
25 25 25 25 25 25 25 23 22 22 21 18 15 14 15 14 13 14 20 25 24 24 25 26 27 29 28 26 26 21 17 17 16 15 18 25 29 29 31 35 31 28 31 33 32 31 34 36 32 29 29 28 28 30 30 28 30 32 27 24 24 23 26 27 26 28 26 21 18 20 24 25 23 26 26 19 23 26 26 26 25 25 25 23 23 21 20 21
25 25 24 24 24 24 23 22 21 20 16 13 11 13 15 16 16 17 20 26 28 25 25 27 27 28 29 25 26 26 23 22 21 17 18 25 29 29 29 33 31 29 32 36 34 31 30 29 28 29 29 31 30 30 32 31 30 33 31 25 22 22 25 26 23 25 25 20 18 17 19 24 24 24 25 22 22 26 26 24 23 23 24 22 21 22 20 20
25 25 24 24 23 23 21 19 18 14 11 11 11 13 15 16 16 18 21 23 25 24 21 25 27 27 27 22 27 30 25 26 28 24 20 25 29 29 28 29 31 31 32 34 33 31 27 23 27 31 32 33 32 30 33 33 29 31 32 28 22 20 24 26 23 22 24 21 21 21 16 18 25 26 25 24 23 26 25 25 26 24 23 20 19 22 21 20
26 25 24 23 22 22 19 17 15 12 12 13 14 14 15 17 16 16 18 18 22 23 20 24 25 23 23 23 27 27 23 30 34 30 24 25 28 28 26 26 30 30 29 30 31 30 26 24 28 32 33 33 33 32 32 32 30 29 30 29 24 20 21 27 26 22 23 20 20 24 19 14 21 27 27 25 23 26 25 24 27 27 24 21 19 22 23 21
27 25 24 22 21 20 19 16 14 13 13 14 15 15 15 16 14 13 12 11 15 17 15 21 20 15 16 20 26 29 25 26 32 35 29 27 29 29 25 26 28 28 27 28 29 30 27 26 28 32 33 33 35 34 31 33 32 28 26 28 28 24 22 27 28 24 22 18 16 23 26 19 19 24 27 27 22 22 24 24 26 27 25 22 21 22 24 23
28 26 24 22 20 20 19 16 13 11 12 14 13 12 12 14 12 9 6 6 7 8 3 17 19 12 9 17 29 36 26 11 22 37 34 26 29 31 27 27 27 26 27 28 29 28 27 28 29 32 34 34 35 34 30 31 32 25 21 26 29 24 22 25 28 27 21 16 16 23 26 20 18 19 23 27 25 21 24 26 26 27 25 23 22 23 25 25
28 26 24 21 19 19 17 15 12 10 12 14 12 10 10 11 9 7 5 6 8 5 7 13 18 14 9 19 30 34 27 9 14 31 32 24 29 32 27 25 24 25 27 28 28 24 25 29 28 31 34 33 32 31 28 29 31 25 19 24 27 22 21 20 22 28 24 14 15 22 26 19 15 19 22 26 28 25 25 26 25 25 24 24 24 25 26 25
27 25 23 20 18 17 16 15 11 8 9 10 10 9 9 8 7 6 6 6 11 4 5 8 13 13 12 22 28 31 30 16 11 24 31 25 28 30 25 21 22 24 27 27 26 23 23 27 26 29 33 31 28 28 28 28 29 26 22 25 26 22 22 19 21 26 20 13 19 24 27 23 13 17 25 26 27 28 28 26 23 23 22 23 26 26 26 26
24 22 20 17 16 16 15 13 9 7 8 8 7 7 6 6 6 6 5 7 11 8 5 3 10 12 15 24 26 28 30 21 15 24 30 26 28 31 25 22 23 25 27 28 28 26 24 26 27 27 29 29 27 28 29 27 28 28 25 25 25 22 21 19 21 21 12 10 23 28 27 26 16 15 22 22 23 26 27 27 25 25 24 24 26 27 26 25
21 19 16 14 15 15 13 9 7 7 8 8 6 4 4 5 7 9 9 12 12 13 17 9 9 10 15 23 23 26 29 24 20 25 29 29 31 34 29 26 28 26 27 29 29 28 26 27 28 26 28 30 29 28 29 27 29 31 28 25 22 16 14 13 13 13 10 10 19 25 25 23 20 19 21 19 20 24 24 26 25 24 24 25 26 27 27 25
20 15 12 12 13 12 10 8 6 7 7 6 4 2 3 5 5 7 11 13 12 17 22 14 9 8 14 23 23 25 27 23 22 25 28 28 30 32 29 26 27 24 24 28 29 27 24 25 30 30 29 32 31 30 31 30 33 36 32 27 21 12 8 9 8 8 10 12 16 23 23 20 18 19 24 23 18 21 23 24 23 19 20 23 24 26 27 27
17 11 10 12 12 11 10 9 7 6 6 4 3 1 3 7 8 11 13 12 16 22 22 14 9 8 16 24 24 26 26 22 24 25 25 27 29 31 29 27 28 24 23 27 29 27 22 21 31 33 30 32 32 30 29 28 30 35 34 28 25 20 11 8 8 7 9 12 17 20 17 17 16 13 20 22 14 16 22 23 21 17 17 20 21 24 27 28
14 10 9 10 11 12 12 11 10 10 8 4 3 3 6 8 10 13 15 15 20 25 21 10 5 7 13 20 22 27 26 21 24 25 25 28 29 31 32 30 30 27 24 26 27 28 24 21 27 30 27 32 33 29 27 26 26 30 32 28 27 28 19 11 11 10 7 8 14 17 14 16 17 12 15 17 12 15 20 19 20 18 20 22 21 23 26 27
13 11 10 11 11 12 12 11 10 9 7 3 4 7 10 10 10 12 15 18 20 23 22 10 3 6 11 18 21 28 25 20 25 24 22 27 27 29 31 29 29 29 27 27 26 26 24 20 26 28 24 30 35 30 27 27 26 27 31 32 30 28 21 15 14 10 5 4 9 16 16 14 14 12 16 17 13 17 18 16 20 20 22 25 25 24 24 26
14 14 13 12 11 12 11 9 8 8 6 5 7 10 10 10 11 11 14 17 17 19 20 11 3 3 9 16 21 28 25 19 25 24 21 25 25 27 31 28 28 31 28 27 25 24 22 19 25 31 26 26 31 29 27 28 27 26 30 31 29 25 22 17 13 7 5 6 7 15 20 17 13 11 15 16 16 21 20 15 17 18 21 26 28 25 23 24
14 14 14 12 11 12 11 9 8 7 7 7 10 12 10 8 8 9 11 14 16 16 15 10 8 7 2 10 18 27 25 19 24 24 21 24 24 26 31 29 28 31 28 25 24 24 23 18 22 31 30 25 27 28 28 30 29 27 26 27 26 22 22 20 13 7 7 6 6 14 20 20 17 15 17 17 18 23 23 18 16 17 19 22 26 26 24 22
14 13 14 14 12 11 11 9 9 7 8 9 13 12 10 9 8 8 10 13 15 13 10 8 8 9 5 6 16 24 24 20 23 24 21 23 23 24 30 29 28 31 28 26 25 23 24 17 17 28 30 26 29 31 31 32 32 28 24 27 29 23 20 21 17 12 10 6 6 11 14 16 19 19 21 21 21 24 24 22 19 18 18 19 22 23 23 20
15 14 13 13 11 10 10 9 8 9 10 12 14 12 11 13 11 9 10 13 14 12 10 10 9 9 6 8 17 18 20 21 23 23 20 22 22 23 30 29 28 32 29 26 24 23 24 17 15 25 29 26 31 34 32 32 32 31 29 31 32 25 21 21 20 20 16 8 5 7 7 13 20 19 20 24 26 25 25 24 23 21 20 20 20 20 21 19
14 13 11 10 9 8 9 10 9 10 11 13 14 14 14 15 12 10 10 11 14 14 13 13 8 6 3 9 15 12 14 18 22 21 19 22 22 22 28 29 27 31 30 27 25 24 24 17 16 25 29 28 30 31 29 28 29 30 29 30 31 28 23 17 14 21 22 13 9 8 7 10 15 16 17 23 27 26 24 25 25 23 22 23 23 22 22 20
9 8 8 8 8 7 8 10 11 12 13 14 14 15 16 15 13 11 12 13 14 15 14 11 5 2 2 9 12 10 11 15 23 21 17 21 20 19 27 28 27 30 29 26 27 25 22 18 19 22 25 26 25 26 28 28 27 28 26 26 28 30 28 19 12 17 20 16 15 14 8 6 11 13 15 20 23 22 22 23 22 22 25 27 25 22 21 20
7 6 8 8 8 9 9 9 11 13 13 14 15 15 15 15 14 14 15 16 14 13 13 7 4 4 6 7 9 11 10 14 23 20 15 20 18 17 26 28 26 30 29 24 25 26 20 17 21 21 21 24 23 24 29 29 26 29 29 26 26 28 28 24 17 17 17 15 15 11 5 5 11 15 18 19 18 18 19 21 22 24 29 30 27 25 24 23
8 7 8 9 8 10 10 9 10 12 12 13 15 15 14 15 16 15 16 16 12 12 11 3 3 3 6 5 5 8 7 13 22 18 15 20 17 16 26 28 25 30 30 24 24 26 20 17 22 20 15 19 20 20 28 33 32 32 33 29 26 26 28 27 22 17 13 15 18 11 4 8 12 16 20 18 13 16 20 22 25 28 30 30 29 29 28 25
10 9 9 11 12 11 10 10 11 13 14 15 18 18 16 16 17 17 17 16 11 9 8 2 4 3 6 2 3 7 9 14 19 16 15 20 16 16 26 27 23 29 30 23 21 25 21 19 23 19 11 12 14 16 25 33 33 30 31 31 28 26 29 29 24 17 12 16 22 15 6 13 15 16 20 17 13 17 23 25 27 28 28 30 30 30 29 26
12 11 11 12 13 12 11 11 12 15 17 19 22 21 18 17 18 17 15 15 9 5 4 4 4 4 3 2 1 7 12 16 17 13 16 20 16 18 26 26 24 29 29 22 21 23 20 19 23 21 17 17 18 20 24 28 29 28 29 31 30 26 27 26 23 20 17 16 21 18 9 18 18 16 19 19 16 18 23 26 27 26 28 31 31 31 30 27
13 12 14 14 13 11 11 11 11 14 16 17 20 21 18 17 19 17 15 13 9 4 3 3 3 4 1 2 1 4 8 14 16 13 16 18 16 18 24 26 26 27 25 21 22 23 18 18 22 22 19 19 20 22 23 26 29 29 27 29 31 29 28 26 23 24 21 16 16 15 12 15 16 15 16 19 21 22 21 24 27 28 29 32 32 33 31 28
13 13 14 15 16 14 13 12 10 12 14 13 15 17 17 16 18 18 15 13 9 5 4 3 5 5 2 2 2 5 5 11 15 15 16 17 17 18 21 25 25 23 22 20 21 22 18 17 20 20 19 19 19 21 23 25 27 27 27 27 29 31 31 29 25 24 23 19 14 11 10 10 13 14 15 17 23 26 25 25 28 29 29 31 32 31 30 27
15 15 13 14 16 15 13 12 12 13 14 13 14 16 16 16 17 17 17 14 10 9 9 5 4 4 4 5 6 7 6 8 8 13 17 16 17 18 21 24 24 22 22 21 20 20 18 17 18 19 18 17 17 19 22 24 25 27 29 27 26 28 31 31 27 23 23 23 18 12 10 12 14 15 16 18 21 25 26 26 27 28 28 30 30 29 28 27
17 17 17 16 15 12 10 10 11 13 13 13 15 15 15 15 16 15 15 14 10 10 10 7 3 2 4 6 6 9 11 4 2 11 17 15 16 20 23 24 23 24 25 21 19 20 18 16 16 17 18 18 18 18 20 22 22 24 27 27 25 26 28 31 30 25 22 22 21 18 13 11 14 17 19 20 22 24 24 23 22 24 27 28 27 27 27 26
17 17 18 19 15 10 8 7 8 11 13 12 13 14 14 13 13 14 13 10 10 12 12 10 9 5 1 3 5 13 14 5 7 15 15 14 16 19 22 23 23 26 27 21 19 22 19 13 13 16 18 17 17 17 19 22 21 22 26 27 27 27 27 30 31 29 25 21 20 21 16 10 15 20 19 20 23 22 20 17 14 16 21 25 26 26 25 24
18 17 18 19 15 10 8 7 7 10 13 10 10 13 13 11 10 13 13 9 9 11 10 8 10 10 7 5 2 13 15 9 14 16 14 17 19 18 20 21 21 25 27 23 21 22 20 13 12 16 16 15 17 17 17 18 18 19 25 27 28 28 27 28 31 32 30 24 21 22 18 12 15 19 18 19 21 19 18 16 12 11 13 17 22 24 24 23
Wind_Direction
286 285 283 282 280 278 277 275 273 272 271 270 269 268 267 265 263 262 262 263 263 262 261 262 262 261 260 260 259 257 255 253 251 250 249 248 246 247 246 244 244 243 240 238 237 237 238 238 238 238 237 235 234 232 225 215 213 219 222 228 235 237 238 241 243 245 251 260 264 261 254 247 242 243 250 246 237 248 260 256 244 248 247 243 242 237 247 253
288 286 284 283 281 280 279 278 276 274 272 271 269 267 266 265 264 263 261 261 262 262 260 260 260 260 259 259 258 257 256 255 253 251 251 248 246 247 245 243 242 240 239 236 234 233 234 234 233 232 231 231 230 230 226 216 212 218 222 229 234 236 238 242 244 247 251 256 261 262 248 227 224 231 237 236 229 247 268 257 234 236 226 229 237 231 236 246
291 288 286 285 283 282 280 279 278 276 275 273 271 269 267 265 264 263 262 261 261 261 261 259 258 258 258 257 257 257 255 254 255 253 250 247 247 247 243 240 239 239 237 234 232 229 228 226 226 229 227 226 225 224 224 217 214 219 222 230 235 237 241 243 245 247 250 254 256 257 243 213 217 228 232 232 236 243 252 248 229 221 216 226 235 230 231 240
293 290 288 286 284 283 281 280 278 277 276 274 273 272 270 267 265 263 261 260 259 260 260 260 258 257 256 256 256 257 256 256 257 254 250 247 246 245 242 238 235 235 235 232 229 226 223 216 207 220 226 222 221 218 220 217 215 219 222 229 235 238 243 243 245 247 248 253 249 248 256 241 227 230 239 241 247 245 241 245 238 225 225 233 234 227 233 240
295 293 290 287 284 283 281 279 278 277 276 275 274 273 272 270 268 266 263 261 259 258 259 260 259 258 256 255 255 255 255 257 257 253 249 247 244 242 240 236 233 232 230 227 225 222 221 215 200 202 221 220 218 216 219 217 214 221 225 231 235 236 242 243 243 244 245 249 242 239 250 254 235 233 241 239 238 237 236 249 248 231 228 235 232 223 232 240
295 294 292 289 287 284 281 279 278 277 276 276 274 273 273 271 270 268 266 263 260 258 257 257 258 257 256 254 253 253 249 244 251 253 249 246 243 240 237 233 231 228 226 224 222 218 216 216 205 199 212 219 217 216 219 217 215 223 229 232 236 236 239 241 242 244 243 241 237 239 244 248 250 244 241 238 235 232 236 252 244 216 221 235 233 229 235 238
297 295 293 291 289 286 284 282 279 278 277 277 275 274 273 272 271 270 268 267 264 261 258 256 256 256 255 253 251 252 246 238 246 251 246 246 244 240 236 231 229 226 223 221 220 217 212 212 210 202 207 217 218 217 219 218 217 223 230 232 234 236 237 238 242 249 245 238 235 239 243 246 251 249 243 239 238 236 236 242 230 206 217 236 237 235 239 237
301 299 297 294 292 289 287 284 282 280 278 277 277 276 274 273 273 271 270 269 267 265 262 257 255 254 253 252 249 247 245 240 244 248 242 243 245 241 235 229 226 224 221 219 218 217 213 211 210 204 208 216 218 219 218 220 222 224 229 232 233 235 238 238 241 244 245 242 236 237 241 244 246 247 246 240 242 244 237 237 229 215 215 232 237 236 238 236
305 304 303 300 297 295 291 288 285 282 280 279 278 277 276 275 274 273 272 270 270 269 267 262 255 252 251 249 247 245 243 237 237 244 241 237 240 238 233 226 223 221 220 218 215 213 212 211 209 205 210 218 221 221 219 222 224 225 228 232 234 235 237 238 239 238 240 242 240 240 242 243 242 241 243 236 233 237 233 237 230 218 213 219 227 232 240 236
309 309 308 306 304 302 299 296 292 288 285 282 280 279 278 277 275 274 273 272 271 269 269 266 259 253 250 248 247 244 238 236 237 240 241 236 234 233 230 226 223 220 217 215 213 211 209 210 210 207 212 221 224 225 222 223 227 227 229 233 235 236 235 236 238 236 236 238 239 242 244 243 241 239 241 236 231 232 227 229 225 214 214 221 224 230 239 231
314 314 313 312 310 307 305 303 300 297 293 290 287 284 282 280 277 275 273 272 271 270 268 267 264 256 251 247 245 241 230 230 229 225 232 233 226 225 224 224 222 220 215 212 212 211 208 206 205 209 217 221 224 229 228 225 228 231 232 235 235 234 235 235 237 235 231 234 236 239 245 245 240 237 240 238 235 239 232 225 224 214 214 225 225 221 229 227
318 317 316 315 313 311 310 308 306 304 302 300 296 292 289 285 282 277 274 273 271 270 268 268 266 260 256 248 243 239 228 230 232 228 231 231 226 222 221 222 222 220 215 210 208 209 209 201 196 210 218 221 223 228 232 229 229 233 233 237 238 233 235 233 232 232 228 231 232 236 244 244 239 236 239 239 237 241 233 223 225 220 216 227 230 226 232 233
318 317 317 315 313 311 310 309 309 309 309 308 306 303 299 293 289 284 279 275 272 271 269 268 266 263 261 252 243 237 230 232 238 238 234 232 230 226 224 224 221 219 216 212 206 203 209 202 197 211 217 219 224 224 230 229 228 232 232 234 235 232 235 232 228 229 228 230 228 227 239 241 237 236 236 237 236 230 221 218 224 223 216 223 232 230 231 230
317 316 315 314 312 309 306 305 306 308 309 309 309 306 304 300 297 291 285 279 274 270 268 267 266 264 262 254 244 237 235 231 234 235 232 229 229 225 224 223 219 216 214 215 209 199 202 205 203 214 219 220 223 225 229 229 226 226 228 229 228 232 236 230 223 223 224 228 223 220 235 241 238 237 233 230 227 219 218 221 226 222 215 220 223 221 224 226
316 315 314 313 311 308 304 302 301 303 304 306 307 304 304 303 300 296 290 283 276 271 268 266 265 264 263 258 248 240 236 231 232 234 231 228 226 223 222 220 216 214 211 211 212 203 193 200 210 215 220 220 221 227 228 227 226 221 221 223 223 229 235 229 220 217 219 223 217 216 231 240 238 237 231 224 222 219 223 227 224 220 216 217 210 205 215 222
317 316 315 313 311 308 304 301 300 300 302 303 304 303 304 305 302 297 291 286 279 273 265 261 259 261 264 260 248 243 238 233 233 231 230 227 224 222 219 217 214 212 211 206 209 207 195 194 208 215 216 217 218 222 225 223 222 217 218 220 220 223 230 231 221 215 215 216 213 215 227 238 238 237 229 222 223 221 222 226 223 220 220 218 210 203 207 213
318 317 317 314 312 310 306 304 302 302 303 302 302 302 304 307 306 300 293 285 278 271 262 258 255 257 261 255 242 242 237 238 237 227 227 225 219 218 213 212 211 208 209 204 205 208 202 195 199 210 212 214 214 214 219 220 214 212 215 219 221 221 223 228 225 214 208 210 214 216 225 235 238 237 231 224 224 221 220 223 220 220 224 221 218 219 215 212
316 316 315 313 311 310 308 306 305 305 304 303 304 304 304 307 307 302 293 282 273 263 253 247 237 244 261 257 242 239 216 222 240 223 221 221 214 213 210 207 206 204 203 203 204 204 204 200 198 208 211 211 210 208 214 215 208 208 209 213 220 223 221 222 227 215 200 205 214 217 225 231 237 239 234 226 220 218 219 219 217 220 226 222 213 222 225 218
313 313 312 311 310 308 308 307 306 306 304 304 306 305 306 310 310 307 300 284 269 255 248 247 237 233 237 131 188 247 214 203 219 214 209 212 208 206 205 200 197 200 198 200 206 203 200 200 203 209 210 209 208 207 211 211 207 209 208 211 215 222 223 218 228 218 193 199 213 218 225 228 237 236 230 232 220 212 217 219 221 223 230 236 226 222 226 225
309 309 309 309 308 307 307 306 306 306 304 306 308 307 311 315 314 310 300 280 271 263 254 252 251 244 225 156 120 267 254 227 223 214 199 201 203 200 197 190 187 198 199 197 203 201 195 200 207 209 208 207 207 207 210 212 213 214 212 216 216 221 226 217 226 217 187 195 213 219 224 227 237 229 224 237 217 203 215 220 223 224 227 237 238 227 225 230
307 306 307 307 307 306 306 306 306 305 304 307 308 309 313 314 299 296 283 264 262 265 257 243 246 254 238 200 160 172 244 256 243 224 202 195 196 196 191 184 185 199 200 194 198 198 197 206 211 209 207 206 206 207 209 212 219 225 221 220 218 220 226 218 222 218 189 193 214 218 222 225 233 231 231 234 204 200 219 223 226 227 229 236 238 236 231 232
310 308 308 308 308 307 306 308 307 305 307 308 309 310 314 303 279 286 280 267 256 252 257 245 233 242 243 219 181 173 204 235 243 229 205 193 192 194 190 184 188 197 196 191 193 195 201 212 212 208 207 206 207 207 210 212 219 231 231 226 222 215 224 224 220 221 201 193 214 217 218 223 229 236 240 226 200 210 226 228 233 234 237 241 240 239 233 229
314 313 311 310 310 308 308 309 308 308 308 307 310 310 309 300 284 280 277 274 265 248 247 246 235 233 237 222 194 192 221 228 227 221 204 197 193 190 189 188 190 194 193 193 195 195 203 212 209 205 206 206 208 207 209 212 216 228 232 231 228 212 218 225 218 220 206 192 210 213 214 222 227 232 237 228 212 218 225 224 227 231 239 244 243 238 231 230
319 316 312 312 311 309 310 311 310 311 307 304 305 300 295 294 291 283 275 275 275 262 247 245 244 238 236 222 200 211 233 229 217 204 200 202 192 187 191 192 191 194 197 197 198 202 207 210 204 202 204 204 207 206 206 210 214 223 227 229 230 217 214 220 217 213 204 196 209 214 215 221 225 226 227 227 223 220 220 221 219 224 234 239 238 231 224 226
326 322 316 313 312 313 313 314 315 314 308 301 291 288 287 289 291 283 281 281 279 274 257 245 242 240 240 224 205 211 226 229 213 190 193 203 191 188 193 194 195 198 200 199 201 208 211 207 200 200 203 203 205 207 204 206 211 218 223 224 226 224 212 215 217 200 195 203 206 212 225 222 220 224 220 219 226 224 220 222 223 223 229 235 232 223 216 215
327 325 321 316 315 316 314 315 314 302 298 292 281 283 284 287 290 283 286 286 282 280 261 239 236 240 237 219 204 203 221 233 214 184 184 201 193 189 193 195 199 202 201 198 202 211 211 203 200 199 201 202 204 208 204 202 209 215 218 218 223 228 210 211 215 188 185 209 207 209 228 232 216 218 218 215 220 224 218 215 219 224 230 236 234 221 212 208
330 328 324 321 320 318 315 312 303 288 286 281 280 285 283 288 285 279 288 280 285 296 260 225 220 231 236 216 199 194 207 230 215 189 181 194 193 189 196 197 198 202 198 195 202 210 208 200 199 199 200 201 203 207 204 201 209 213 210 212 222 232 221 213 210 186 181 207 216 213 222 236 230 213 211 211 206 206 209 211 217 225 229 232 235 226 215 210
332 330 327 325 323 317 313 311 300 283 272 270 285 291 284 290 274 259 274 252 290 341 218 200 201 217 238 208 197 195 195 213 218 198 180 185 194 189 199 201 197 200 195 195 204 205 203 201 198 197 199 202 203 206 204 200 208 212 203 207 219 232 231 219 212 204 198 205 223 218 210 227 243 217 204 207 197 183 193 205 211 217 221 227 233 228 218 213
327 329 329 327 326 319 312 312 304 286 272 271 287 294 285 286 264 243 240 256 308 8 140 179 195 205 204 193 196 197 192 195 230 202 177 181 195 189 199 202 196 202 198 201 207 201 200 202 197 196 200 204 203 204 203 201 205 207 201 204 213 228 231 226 230 226 217 212 227 220 202 208 237 224 212 204 192 184 191 197 202 213 222 231 232 224 216 210
320 324 329 329 330 326 315 310 305 296 285 275 280 289 285 271 251 243 221 256 312 334 156 183 197 200 189 186 191 194 194 196 214 192 175 181 193 189 198 204 197 203 202 205 210 204 199 200 200 200 201 203 201 200 202 201 201 203 206 203 205 220 225 238 253 232 215 216 228 225 208 204 224 228 223 213 196 197 204 200 202 214 224 230 229 223 216 210
320 324 329 332 336 335 322 311 307 312 306 289 289 292 271 251 242 236 232 286 309 319 322 238 196 205 197 186 189 194 196 196 195 187 177 179 188 189 197 204 200 201 202 203 207 206 198 195 201 202 200 200 197 198 200 202 199 201 210 204 197 208 215 236 249 224 206 215 221 228 218 205 213 223 225 223 202 200 213 219 222 225 223 225 228 224 215 208
327 331 333 337 345 343 335 323 304 304 306 302 310 294 245 253 243 233 266 309 318 328 334 308 217 215 203 191 192 194 195 196 195 187 181 179 185 190 194 197 193 191 196 196 198 204 200 195 200 199 196 197 195 193 197 199 197 199 210 205 193 196 201 221 236 211 212 225 215 223 223 211 214 218 225 228 207 202 219 231 234 229 218 217 223 222 215 207
335 342 348 352 355 353 358 354 321 308 315 318 323 270 251 275 261 259 284 305 320 330 333 315 248 224 195 191 192 191 195 199 189 181 183 183 184 190 196 197 194 190 190 188 188 198 198 193 200 197 192 196 195 191 193 192 192 198 207 204 194 192 188 204 221 206 214 230 222 222 223 220 217 215 226 234 218 204 214 222 223 221 214 212 214 216 216 213
346 358 4 4 5 8 22 27 18 14 11 8 32 51 306 292 289 308 309 308 322 327 332 323 268 225 192 191 188 186 194 195 182 178 183 184 184 191 196 198 198 194 188 184 185 193 195 192 197 195 189 194 196 195 194 190 191 199 207 210 204 201 196 196 208 206 206 220 226 224 224 221 215 212 222 232 226 198 201 209 210 207 206 205 206 209 213 215
4 12 8 10 16 21 28 35 38 40 46 44 17 298 284 281 282 305 314 314 321 328 337 335 246 203 191 198 191 184 191 188 177 179 184 187 188 190 193 196 196 195 190 184 183 191 197 192 189 188 188 193 198 204 201 192 194 200 205 211 207 201 199 201 211 214 212 221 220 222 228 216 215 222 213 218 219 188 188 201 199 190 191 197 204 209 212 213
20 18 13 14 19 24 25 22 23 26 29 7 308 282 274 280 289 303 315 322 322 329 343 355 187 192 200 204 194 186 192 186 175 181 187 190 193 192 194 196 194 196 192 183 182 188 191 189 185 186 191 195 199 207 206 196 194 197 203 207 203 201 201 198 206 210 220 248 209 209 221 205 202 215 201 199 192 168 171 189 193 188 187 193 202 210 216 216
22 18 18 17 9 13 15 7 4 1 349 310 282 286 290 295 304 306 311 321 325 331 342 351 342 262 205 200 192 184 188 181 175 184 187 189 196 195 195 196 194 198 196 185 186 187 181 182 187 190 196 198 198 204 207 200 195 195 202 201 196 207 219 212 204 188 197 237 211 207 214 200 191 192 181 181 172 164 167 174 184 190 186 188 197 207 216 217
21 18 18 16 5 6 7 1 1 345 320 315 301 299 307 306 302 307 311 317 326 334 338 334 320 322 202 186 189 183 182 177 179 187 184 186 197 194 193 196 195 201 202 190 188 187 182 180 182 189 197 196 194 203 207 201 199 202 200 194 194 208 220 216 208 192 196 216 218 216 213 207 206 192 176 180 174 171 174 168 171 183 186 192 197 199 204 210
17 19 17 12 4 5 6 360 357 334 304 309 309 307 326 331 312 313 315 314 325 331 329 327 312 318 344 178 188 186 184 178 181 188 184 187 196 192 192 194 193 200 201 191 189 189 189 187 175 184 192 189 190 204 207 197 199 208 201 193 202 213 216 213 209 205 205 204 215 219 212 212 216 202 185 185 180 175 179 178 176 180 192 205 203 197 202 210
19 20 16 10 5 5 4 356 349 334 309 304 313 322 334 328 317 321 315 313 328 328 315 324 314 312 323 191 188 191 192 183 182 190 187 186 189 186 190 191 191 198 199 194 194 189 191 196 176 176 185 188 192 201 204 192 193 206 204 196 202 212 215 213 210 207 208 205 204 218 220 212 213 215 206 195 188 185 186 187 186 185 198 215 213 210 215 217
26 17 5 2 3 4 360 349 342 331 312 311 330 339 329 316 314 324 317 313 326 325 323 332 324 320 322 198 191 192 202 191 185 193 190 183 182 180 186 188 187 193 197 200 201 189 188 193 172 172 182 190 195 198 200 196 194 202 206 200 200 206 208 208 211 210 210 212 206 213 237 210 199 218 220 200 194 194 192 192 191 188 198 213 219 221 223 221
30 11 353 353 355 358 354 346 341 330 316 319 332 328 316 315 318 320 322 322 321 321 328 340 345 11 137 194 191 188 209 196 186 195 191 180 184 184 183 185 186 189 194 200 198 188 186 180 165 177 190 192 195 196 199 203 201 201 208 206 199 203 208 207 209 207 207 214 214 212 224 184 167 186 197 189 190 194 194 196 194 192 197 206 215 219 221 222
22 359 347 351 353 348 340 341 345 335 323 323 327 324 319 324 325 318 325 331 328 326 330 342 25 73 136 179 196 196 213 200 188 195 186 175 185 187 180 180 183 186 190 193 189 187 189 177 168 181 194 193 195 197 202 208 205 201 208 211 204 204 207 210 213 209 206 213 213 207 202 157 151 165 175 177 183 191 196 197 194 193 196 202 210 215 219 221
11 357 343 338 339 337 327 325 333 331 325 323 329 334 333 333 333 328 334 343 341 337 336 352 78 105 157 184 229 206 211 204 189 189 182 173 178 182 177 176 178 183 188 191 185 184 187 177 173 179 185 188 191 194 201 208 209 204 203 208 212 206 202 209 216 214 212 218 217 214 186 167 172 170 166 164 176 190 189 190 195 196 196 200 208 214 217 218
1 357 348 332 324 328 326 320 321 322 326 329 334 340 337 337 343 343 352 3 359 343 345 58 111 148 171 206 255 182 183 195 186 183 183 172 168 175 175 176 180 182 185 187 182 181 182 176 176 182 183 185 192 193 195 201 206 207 203 209 218 212 203 206 210 211 211 215 223 227 154 143 169 173 167 169 182 184 180 185 195 200 200 204 211 216 218 218
355 350 346 334 324 326 325 322 319 317 321 325 330 339 341 343 352 359 10 19 13 4 40 94 112 136 168 315 268 175 180 185 180 181 180 170 168 173 174 178 184 181 182 187 183 180 181 182 186 193 196 194 199 197 191 192 200 204 203 206 212 213 212 208 204 208 211 210 227 234 169 144 161 169 172 184 186 173 173 183 191 197 204 209 215 219 220 220
356 344 338 337 336 335 328 325 320 315 322 325 326 337 346 350 358 8 22 31 25 29 81 111 133 141 153 360 151 201 201 184 178 178 172 168 166 164 171 182 188 186 189 192 184 179 182 192 196 201 203 200 199 197 190 191 201 205 205 206 204 205 218 222 210 207 213 217 224 215 169 151 162 168 176 188 188 181 177 182 188 196 204 209 216 220 222 222
357 345 338 335 332 331 329 332 329 323 330 331 328 341 350 354 1 1 7 28 41 46 55 100 157 163 166 150 209 265 229 177 177 175 164 165 167 158 167 183 187 191 194 187 180 181 188 198 198 202 211 206 196 197 197 194 201 208 211 212 205 203 217 229 219 206 214 227 224 193 170 168 170 177 186 189 192 193 189 191 197 199 203 209 216 221 223 222
356 349 345 335 326 324 323 328 330 331 339 338 337 348 351 350 357 355 353 10 42 62 54 65 159 195 203 187 215 238 196 168 176 165 155 163 172 164 168 178 183 189 188 179 178 185 190 198 198 201 213 211 200 201 200 195 199 206 209 211 207 205 216 224 219 208 211 224 228 218 210 206 196 190 191 196 205 204 200 205 212 210 210 214 217 220 221 219
1 354 348 341 336 332 326 332 333 331 339 343 342 346 344 341 348 352 348 354 21 46 38 25 10 283 210 187 201 201 188 183 140 152 154 160 170 170 171 175 176 179 182 183 184 186 191 201 206 206 209 216 225 220 201 194 201 206 207 210 209 208 213 217 217 216 215 218 223 227 232 224 203 185 180 196 213 214 209 213 219 219 221 223 222 223 224 222
9 1 349 345 349 346 333 343 345 333 335 343 340 336 331 334 342 345 342 343 2 9 0 353 356 355 183 181 192 192 196 191 130 152 159 153 161 173 177 176 173 173 181 189 186 185 192 207 216 210 205 214 231 225 201 194 203 207 208 210 210 210 212 212 214 218 219 217 218 222 224 205 180 175 180 199 213 215 211 212 217 220 224 228 230 233 235 236
13 11 3 357 359 355 334 339 352 336 327 324 325 323 321 327 340 342 338 340 352 349 343 343 349 358 15 10 210 190 196 174 135 149 160 151 158 174 177 177 176 175 179 183 180 183 195 211 212 201 201 210 218 222 217 207 204 207 209 210 210 211 212 210 211 214 214 215 219 217 212 196 179 179 187 200 206 208 208 213 221 218 214 221 226 229 233 234
Height
3074 3073 3072 3071 3070 3069 3068 3068 3067 3067 3066 3066 3066 3066 3065 3065 3065 3066 3065 3065 3066 3066 3067 3068 3069 3071 3073 3073 3073 3073 3075 3076 3076 3075 3077 3081 3081 3081 3086 3089 3091 3093 3095 3098 3100 3103 3106 3108 3111 3114 3116 3118 3120 3122 3125 3128 3132 3133 3133 3132 3129 3128 3129 3130 3132 3133 3133 3133 3133 3133 3133 3133 3134 3136 3135 3134 3136 3137 3138 3141 3143 3143 3145 3139 3135 3137 3137 3139
3070 3069 3068 3067 3065 3065 3064 3063 3063 3062 3062 3062 3062 3061 3061 3061 3061 3061 3061 3061 3062 3062 3063 3063 3065 3067 3069 3070 3069 3070 3071 3072 3072 3072 3075 3078 3078 3079 3083 3085 3087 3089 3092 3094 3097 3100 3103 3106 3109 3111 3113 3115 3117 3119 3122 3125 3128 3128 3129 3128 3124 3124 3127 3129 3131 3131 3132 3132 3132 3132 3131 3130 3132 3135 3134 3133 3134 3136 3137 3138 3140 3142 3141 3134 3132 3137 3138 3138
3066 3065 3064 3063 3062 3061 3060 3059 3058 3058 3058 3057 3057 3057 3057 3057 3057 3057 3057 3057 3058 3058 3058 3059 3061 3063 3065 3066 3066 3066 3067 3068 3068 3069 3072 3075 3076 3077 3079 3082 3084 3086 3088 3091 3094 3097 3100 3103 3107 3109 3111 3112 3114 3117 3119 3122 3124 3124 3125 3123 3120 3123 3126 3127 3129 3129 3130 3130 3131 3131 3128 3127 3130 3133 3132 3131 3133 3135 3137 3137 3138 3140 3136 3130 3130 3135 3137 3137
3062 3061 3061 3059 3058 3057 3056 3056 3055 3054 3054 3053 3053 3053 3053 3053 3053 3053 3053 3053 3053 3054 3054 3055 3057 3060 3061 3062 3063 3063 3064 3065 3064 3064 3069 3072 3073 3074 3075 3078 3081 3082 3085 3089 3091 3093 3096 3100 3103 3107 3109 3109 3112 3115 3116 3118 3120 3121 3120 3118 3118 3123 3124 3125 3127 3127 3128 3128 3128 3129 3127 3126 3129 3131 3131 3131 3132 3133 3135 3137 3137 3138 3132 3127 3130 3133 3134 3135
3059 3058 3057 3056 3055 3054 3053 3052 3051 3050 3050 3049 3049 3048 3049 3049 3049 3049 3049 3049 3049 3050 3050 3051 3054 3056 3057 3058 3059 3059 3061 3063 3058 3059 3066 3069 3070 3071 3072 3075 3077 3079 3082 3085 3087 3089 3093 3096 3099 3103 3106 3107 3109 3111 3112 3114 3117 3118 3116 3115 3118 3121 3122 3123 3125 3124 3125 3126 3126 3126 3126 3127 3127 3128 3129 3130 3131 3131 3134 3135 3135 3136 3130 3125 3127 3130 3133 3134
3055 3054 3053 3052 3051 3050 3050 3049 3048 3047 3046 3045 3045 3045 3045 3044 3045 3045 3045 3045 3045 3046 3046 3047 3050 3052 3054 3055 3056 3056 3058 3058 3054 3057 3064 3065 3067 3068 3070 3072 3074 3076 3079 3081 3083 3086 3090 3093 3096 3098 3102 3104 3106 3107 3109 3112 3115 3114 3113 3114 3116 3118 3119 3120 3122 3122 3123 3123 3124 3125 3125 3126 3126 3126 3128 3128 3129 3130 3132 3133 3133 3135 3130 3123 3125 3129 3131 3132
3052 3051 3050 3049 3048 3047 3046 3045 3044 3043 3042 3042 3041 3041 3041 3041 3041 3041 3041 3041 3041 3042 3042 3043 3046 3048 3050 3050 3052 3052 3052 3054 3053 3056 3060 3062 3064 3066 3067 3070 3071 3072 3075 3077 3080 3083 3087 3090 3092 3095 3099 3101 3102 3105 3108 3110 3112 3111 3111 3113 3115 3116 3117 3117 3119 3120 3121 3120 3122 3123 3123 3124 3124 3125 3127 3127 3126 3128 3129 3131 3131 3134 3131 3122 3121 3127 3129 3129
3049 3048 3047 3045 3044 3043 3042 3041 3041 3040 3039 3038 3038 3038 3037 3037 3037 3037 3037 3037 3037 3038 3038 3040 3042 3043 3045 3046 3048 3046 3046 3053 3053 3052 3056 3059 3061 3063 3065 3066 3067 3069 3072 3074 3078 3081 3084 3087 3089 3093 3096 3098 3101 3103 3106 3109 3109 3108 3109 3111 3113 3114 3115 3115 3116 3118 3119 3119 3119 3120 3120 3121 3123 3124 3125 3124 3124 3127 3127 3129 3129 3130 3131 3123 3117 3124 3127 3126
3047 3045 3044 3043 3041 3040 3039 3038 3037 3036 3036 3035 3034 3034 3034 3034 3034 3034 3034 3034 3034 3034 3034 3036 3037 3040 3040 3041 3042 3039 3043 3052 3050 3047 3053 3056 3058 3061 3062 3063 3065 3067 3069 3072 3075 3078 3081 3083 3087 3091 3094 3097 3100 3102 3104 3105 3105 3105 3107 3109 3111 3111 3113 3114 3114 3115 3117 3117 3117 3117 3118 3119 3121 3122 3121 3121 3123 3125 3125 3127 3127 3127 3130 3124 3116 3121 3125 3123
3044 3043 3041 3040 3039 3038 3036 3036 3034 3034 3033 3032 3031 3031 3031 3031 3031 3031 3030 3031 3031 3030 3031 3031 3033 3036 3035 3037 3035 3034 3043 3050 3047 3046 3049 3052 3055 3058 3059 3060 3062 3064 3067 3070 3072 3075 3078 3081 3086 3090 3093 3095 3098 3099 3101 3102 3102 3104 3106 3107 3108 3109 3110 3111 3111 3113 3114 3115 3115 3115 3116 3117 3119 3118 3116 3118 3120 3122 3123 3124 3124 3124 3128 3122 3115 3120 3122 3120
3042 3041 3039 3038 3036 3035 3034 3033 3032 3031 3030 3029 3028 3027 3027 3027 3027 3027 3026 3027 3027 3027 3027 3027 3030 3031 3031 3031 3027 3030 3043 3045 3041 3042 3043 3047 3051 3053 3055 3057 3059 3061 3064 3067 3070 3072 3076 3080 3085 3089 3091 3092 3095 3097 3098 3099 3101 3103 3104 3104 3105 3106 3107 3108 3109 3110 3111 3112 3113 3113 3114 3114 3115 3114 3112 3116 3118 3118 3120 3121 3121 3123 3124 3118 3115 3119 3119 3118
3040 3038 3037 3035 3034 3033 3031 3030 3029 3028 3027 3027 3025 3025 3024 3023 3023 3023 3023 3023 3024 3024 3024 3025 3026 3026 3026 3024 3021 3031 3041 3036 3033 3036 3039 3043 3046 3049 3052 3054 3056 3059 3061 3064 3067 3071 3074 3078 3083 3087 3088 3091 3093 3094 3095 3097 3099 3100 3101 3102 3102 3103 3103 3103 3106 3107 3108 3109 3111 3113 3111 3110 3110 3110 3111 3113 3115 3116 3117 3118 3118 3120 3121 3116 3113 3117 3117 3116
3038 3036 3035 3033 3032 3031 3029 3028 3027 3026 3025 3024 3023 3022 3021 3020 3020 3019 3019 3019 3020 3020 3021 3022 3022 3022 3020 3015 3020 3032 3034 3031 3032 3034 3037 3041 3043 3046 3048 3051 3054 3057 3059 3061 3064 3069 3073 3076 3080 3083 3087 3089 3091 3092 3093 3095 3096 3097 3098 3099 3099 3100 3098 3099 3102 3104 3105 3106 3108 3111 3107 3105 3106 3107 3109 3111 3112 3114 3113 3114 3117 3117 3118 3116 3111 3113 3114 3113
3036 3034 3032 3031 3030 3028 3027 3026 3025 3024 3023 3022 3021 3020 3019 3018 3017 3016 3016 3016 3017 3017 3017 3018 3018 3020 3014 3010 3021 3029 3026 3028 3028 3028 3035 3038 3039 3042 3045 3048 3052 3054 3057 3060 3062 3066 3070 3075 3078 3081 3084 3085 3088 3091 3091 3092 3093 3094 3095 3096 3095 3095 3093 3095 3099 3101 3102 3103 3106 3108 3104 3101 3104 3105 3107 3109 3111 3111 3110 3111 3114 3114 3116 3115 3109 3109 3112 3112
3033 3032 3030 3029 3027 3026 3025 3024 3023 3022 3021 3020 3019 3017 3016 3016 3014 3014 3013 3012 3013 3013 3014 3015 3015 3016 3009 3008 3020 3022 3020 3024 3023 3027 3033 3033 3035 3039 3043 3046 3049 3052 3055 3058 3061 3063 3067 3072 3076 3077 3080 3082 3086 3088 3088 3089 3090 3091 3091 3090 3091 3091 3091 3093 3095 3096 3099 3101 3103 3104 3101 3100 3102 3103 3104 3106 3108 3108 3108 3109 3111 3114 3115 3111 3105 3105 3109 3113
3031 3029 3028 3026 3025 3023 3022 3021 3020 3019 3018 3017 3016 3014 3014 3013 3012 3011 3010 3010 3010 3010 3010 3010 3012 3012 3005 3008 3017 3016 3017 3020 3021 3026 3028 3028 3032 3036 3040 3043 3046 3050 3052 3055 3059 3061 3064 3068 3072 3074 3077 3080 3081 3083 3085 3085 3085 3086 3085 3085 3087 3088 3089 3091 3091 3092 3096 3099 3100 3100 3098 3098 3099 3100 3102 3103 3104 3106 3106 3107 3111 3113 3108 3102 3102 3104 3107 3110
3028 3027 3025 3024 3022 3021 3020 3018 3017 3016 3015 3014 3012 3012 3011 3010 3008 3008 3007 3007 3006 3006 3006 3007 3010 3009 3002 3006 3013 3012 3015 3018 3018 3021 3023 3026 3030 3033 3037 3040 3043 3047 3051 3054 3056 3059 3062 3064 3068 3071 3073 3076 3077 3080 3080 3077 3077 3080 3082 3083 3085 3086 3087 3088 3087 3088 3091 3095 3096 3097 3097 3096 3097 3098 3099 3100 3101 3103 3104 3106 3109 3104 3098 3098 3103 3107 3107 3107
3026 3025 3023 3021 3020 3018 3017 3015 3014 3013 3011 3010 3009 3008 3008 3007 3005 3004 3004 3003 3003 3003 3002 3002 3006 3006 3003 3006 3011 3011 3013 3014 3015 3017 3020 3024 3028 3031 3034 3037 3041 3045 3049 3052 3053 3056 3059 3062 3066 3068 3069 3070 3072 3073 3072 3071 3074 3077 3079 3082 3083 3083 3084 3084 3084 3085 3088 3091 3093 3095 3094 3093 3096 3095 3096 3098 3099 3101 3104 3103 3101 3096 3097 3102 3106 3109 3111 3111
3024 3022 3021 3019 3017 3016 3014 3013 3011 3010 3008 3007 3006 3005 3004 3004 3001 3000 3001 3000 2998 2998 2998 2998 2999 3002 3004 3004 3007 3010 3010 3010 3012 3014 3017 3022 3025 3028 3032 3035 3040 3043 3046 3048 3050 3052 3056 3060 3062 3061 3061 3062 3065 3067 3068 3071 3075 3076 3078 3079 3080 3081 3080 3081 3082 3082 3085 3089 3090 3092 3091 3092 3094 3091 3092 3096 3097 3100 3101 3098 3096 3097 3101 3106 3109 3112 3114 3115
3022 3020 3018 3017 3015 3013 3011 3010 3008 3007 3005 3004 3002 3001 3000 3000 3000 2999 2998 2997 2995 2994 2996 2996 2995 2997 3002 3002 3004 3009 3011 3009 3010 3013 3016 3019 3022 3025 3029 3033 3038 3041 3043 3045 3047 3050 3054 3056 3054 3052 3055 3059 3063 3066 3070 3073 3074 3075 3076 3077 3078 3078 3078 3078 3080 3080 3081 3085 3087 3089 3090 3091 3091 3089 3089 3093 3096 3097 3095 3093 3095 3097 3100 3106 3110 3114 3115 3117
3020 3018 3016 3014 3012 3010 3009 3007 3006 3004 3002 3001 3000 2998 2997 2998 3000 2998 2995 2993 2992 2992 2992 2994 2995 2993 2997 3000 3001 3005 3010 3011 3009 3011 3013 3016 3019 3022 3025 3029 3034 3037 3038 3043 3047 3049 3051 3049 3046 3050 3056 3060 3064 3066 3070 3072 3072 3072 3073 3074 3075 3075 3075 3076 3078 3079 3079 3081 3084 3086 3088 3088 3089 3087 3087 3092 3095 3091 3089 3093 3096 3097 3101 3105 3108 3112 3115 3117
3017 3016 3014 3012 3010 3008 3006 3005 3003 3001 3000 2998 2997 2996 2995 2996 2997 2996 2993 2989 2988 2990 2988 2989 2991 2990 2992 2997 2998 3000 3004 3007 3008 3009 3011 3014 3017 3019 3022 3026 3030 3033 3037 3042 3045 3045 3045 3042 3044 3052 3057 3060 3063 3066 3068 3070 3070 3070 3071 3071 3071 3071 3073 3074 3075 3077 3077 3079 3082 3084 3085 3086 3087 3086 3087 3092 3092 3085 3086 3093 3096 3098 3101 3103 3106 3110 3112 3114
3015 3013 3011 3009 3007 3005 3004 3002 3001 2999 2997 2996 2995 2994 2994 2994 2994 2994 2991 2986 2984 2986 2986 2984 2985 2986 2988 2992 2996 2998 2999 3002 3006 3007 3009 3011 3013 3017 3021 3023 3027 3032 3035 3036 3038 3039 3038 3039 3045 3052 3056 3059 3061 3063 3066 3068 3069 3068 3068 3068 3067 3068 3070 3070 3071 3073 3074 3077 3080 3082 3084 3085 3086 3086 3087 3090 3086 3082 3085 3091 3095 3098 3100 3101 3104 3107 3109 3112
3013 3011 3009 3007 3005 3003 3001 3000 2998 2997 2995 2994 2994 2993 2993 2992 2992 2991 2988 2984 2980 2981 2982 2982 2982 2982 2983 2987 2993 2995 2995 2998 3001 3004 3008 3009 3011 3016 3019 3022 3026 3030 3031 3032 3035 3036 3036 3040 3046 3050 3053 3056 3058 3060 3063 3064 3065 3065 3065 3066 3065 3066 3067 3067 3068 3070 3072 3076 3079 3082 3082 3082 3083 3084 3087 3087 3082 3081 3084 3088 3093 3096 3098 3100 3103 3105 3107 3110
3011 3008 3006 3004 3002 3000 2999 2998 2996 2995 2994 2993 2993 2992 2992 2991 2991 2989 2987 2984 2978 2977 2979 2978 2978 2978 2979 2984 2988 2989 2993 2994 2995 3000 3005 3008 3010 3014 3018 3022 3025 3026 3028 3031 3034 3036 3037 3041 3044 3047 3050 3053 3055 3056 3058 3060 3063 3063 3062 3063 3064 3065 3065 3067 3067 3068 3071 3074 3077 3081 3079 3078 3080 3082 3085 3084 3079 3081 3084 3086 3090 3093 3096 3099 3101 3104 3106 3108
3009 3006 3004 3002 3000 2998 2997 2996 2995 2993 2993 2992 2991 2991 2991 2989 2989 2988 2986 2984 2976 2973 2974 2973 2974 2974 2975 2979 2982 2988 2992 2989 2990 2996 3000 3005 3009 3012 3017 3020 3021 3024 3027 3031 3034 3034 3036 3039 3041 3044 3047 3050 3052 3053 3055 3058 3060 3059 3060 3062 3064 3064 3064 3066 3066 3067 3070 3072 3075 3078 3077 3075 3076 3078 3082 3082 3078 3079 3082 3084 3088 3091 3093 3097 3099 3101 3103 3106
3007 3004 3002 3000 2998 2996 2995 2994 2993 2992 2991 2990 2989 2989 2989 2988 2988 2987 2987 2985 2975 2968 2967 2969 2973 2972 2971 2975 2979 2985 2986 2983 2987 2992 2994 3000 3006 3010 3014 3017 3018 3021 3026 3030 3030 3030 3032 3036 3038 3041 3044 3047 3048 3049 3052 3055 3057 3056 3059 3062 3062 3062 3064 3064 3064 3065 3068 3072 3074 3075 3076 3075 3072 3072 3077 3081 3077 3076 3079 3082 3085 3088 3091 3094 3097 3099 3101 3103
3005 3002 2999 2998 2996 2994 2992 2991 2991 2990 2989 2988 2988 2988 2987 2987 2987 2987 2987 2984 2973 2966 2966 2969 2972 2972 2972 2975 2977 2979 2981 2983 2987 2988 2991 2998 3003 3007 3010 3014 3017 3019 3023 3025 3025 3026 3030 3033 3035 3038 3041 3042 3044 3046 3050 3054 3055 3056 3059 3062 3061 3062 3062 3061 3063 3063 3064 3069 3070 3070 3073 3073 3070 3069 3074 3078 3076 3074 3076 3079 3082 3085 3088 3092 3094 3096 3099 3101
3003 3000 2998 2996 2994 2992 2990 2989 2989 2988 2987 2987 2988 2987 2986 2986 2986 2986 2988 2981 2970 2967 2969 2970 2972 2973 2973 2975 2976 2978 2981 2986 2987 2987 2992 2997 3000 3005 3008 3011 3017 3019 3021 3023 3023 3026 3029 3030 3033 3037 3038 3039 3043 3046 3050 3052 3053 3056 3059 3060 3061 3062 3061 3060 3061 3061 3062 3066 3066 3066 3069 3069 3068 3068 3070 3073 3072 3071 3075 3078 3081 3084 3086 3089 3092 3094 3096 3099
3001 2998 2996 2994 2993 2990 2988 2987 2987 2987 2986 2986 2987 2986 2985 2985 2985 2986 2986 2979 2971 2969 2969 2969 2971 2973 2974 2974 2976 2978 2980 2985 2987 2987 2991 2996 2999 3004 3007 3011 3016 3019 3020 3021 3023 3025 3027 3030 3033 3034 3036 3039 3043 3046 3048 3050 3053 3056 3057 3058 3061 3062 3062 3062 3060 3060 3061 3062 3062 3063 3064 3066 3067 3066 3067 3069 3068 3067 3073 3077 3079 3082 3085 3087 3090 3091 3095 3098
2998 2997 2995 2993 2991 2989 2987 2986 2986 2986 2986 2986 2986 2985 2985 2985 2985 2985 2981 2975 2972 2971 2969 2968 2970 2972 2974 2975 2976 2978 2979 2983 2987 2987 2989 2995 2998 3001 3005 3008 3010 3014 3017 3018 3020 3022 3024 3028 3029 3031 3034 3038 3041 3044 3046 3049 3052 3054 3054 3054 3057 3059 3062 3062 3059 3057 3057 3056 3059 3061 3062 3064 3065 3064 3065 3067 3067 3066 3069 3076 3078 3080 3082 3085 3087 3089 3093 3096
2997 2995 2994 2992 2991 2989 2986 2986 2986 2986 2986 2985 2985 2985 2985 2985 2985 2983 2978 2975 2974 2972 2970 2969 2968 2969 2972 2975 2976 2978 2978 2980 2984 2986 2988 2991 2995 2997 2999 3002 3004 3007 3010 3013 3016 3019 3021 3024 3027 3029 3033 3035 3038 3041 3044 3047 3049 3051 3051 3051 3053 3055 3059 3060 3055 3052 3052 3054 3058 3060 3060 3060 3060 3063 3064 3065 3068 3067 3067 3072 3077 3080 3081 3083 3085 3087 3090 3095
2996 2994 2993 2992 2991 2989 2987 2986 2986 2986 2986 2985 2985 2985 2986 2986 2984 2981 2979 2977 2975 2973 2970 2969 2968 2967 2969 2972 2975 2976 2977 2980 2983 2985 2988 2991 2994 2996 2998 3000 3003 3004 3006 3010 3014 3017 3018 3022 3024 3026 3028 3031 3034 3036 3038 3041 3044 3046 3047 3047 3049 3050 3055 3057 3053 3051 3053 3056 3058 3059 3058 3056 3056 3061 3063 3062 3066 3067 3066 3067 3072 3077 3079 3081 3084 3086 3089 3092
2995 2994 2993 2992 2991 2989 2988 2987 2986 2986 2986 2986 2986 2986 2987 2986 2982 2980 2979 2978 2976 2973 2971 2968 2967 2967 2967 2970 2973 2975 2976 2978 2982 2985 2988 2990 2992 2995 2996 2999 3002 3004 3006 3009 3012 3014 3014 3016 3018 3020 3024 3029 3032 3034 3037 3039 3043 3045 3046 3047 3046 3046 3051 3054 3053 3053 3056 3058 3058 3057 3055 3053 3055 3059 3061 3062 3065 3067 3067 3067 3069 3074 3077 3080 3083 3085 3087 3090
2995 2994 2994 2993 2992 2990 2989 2988 2987 2987 2987 2987 2987 2987 2987 2985 2982 2980 2979 2977 2975 2972 2969 2967 2966 2967 2969 2970 2972 2975 2975 2977 2981 2984 2986 2988 2989 2991 2993 2995 2999 3002 3004 3005 3008 3012 3012 3013 3017 3021 3026 3029 3032 3034 3037 3040 3042 3044 3046 3046 3044 3046 3050 3053 3053 3054 3056 3057 3056 3055 3053 3053 3056 3059 3060 3063 3065 3065 3068 3069 3071 3074 3076 3078 3081 3082 3085 3087
2996 2995 2995 2994 2992 2991 2990 2989 2989 2988 2988 2988 2987 2987 2986 2984 2982 2980 2979 2977 2975 2972 2968 2967 2967 2968 2970 2970 2972 2974 2975 2977 2981 2983 2985 2988 2989 2991 2993 2995 2997 3000 3001 3003 3006 3008 3010 3014 3018 3023 3026 3029 3031 3032 3035 3037 3039 3041 3042 3041 3043 3047 3050 3052 3053 3054 3056 3056 3053 3052 3053 3054 3056 3058 3060 3062 3063 3065 3068 3069 3070 3074 3076 3077 3078 3080 3082 3085
2997 2996 2995 2994 2993 2992 2991 2991 2990 2989 2988 2988 2987 2986 2984 2983 2982 2980 2979 2977 2975 2973 2970 2969 2969 2969 2970 2970 2971 2973 2974 2977 2980 2982 2984 2987 2988 2990 2992 2995 2997 2998 3000 3003 3006 3007 3010 3014 3018 3022 3025 3028 3031 3032 3034 3036 3038 3039 3038 3039 3046 3050 3049 3049 3051 3052 3055 3055 3052 3051 3052 3053 3054 3057 3060 3061 3061 3064 3069 3070 3070 3072 3075 3077 3077 3079 3082 3086
2998 2997 2996 2995 2994 2993 2992 2991 2990 2989 2988 2987 2986 2984 2982 2982 2982 2981 2979 2977 2975 2974 2972 2971 2970 2968 2969 2970 2971 2972 2974 2977 2979 2980 2982 2984 2985 2987 2991 2994 2996 2997 2999 3003 3006 3007 3010 3013 3016 3020 3023 3026 3030 3032 3032 3034 3036 3037 3038 3042 3046 3047 3045 3046 3047 3049 3053 3054 3051 3050 3050 3051 3052 3055 3058 3061 3062 3064 3068 3071 3071 3071 3073 3075 3077 3079 3083 3086
3000 2998 2997 2996 2995 2994 2993 2992 2990 2990 2988 2986 2985 2984 2983 2982 2982 2981 2979 2977 2975 2974 2972 2972 2970 2968 2968 2968 2969 2972 2975 2976 2978 2979 2980 2982 2983 2985 2989 2992 2994 2996 2998 3003 3005 3007 3009 3011 3013 3018 3022 3025 3028 3028 3026 3028 3033 3036 3039 3042 3044 3043 3043 3043 3044 3046 3049 3051 3052 3050 3048 3048 3051 3053 3056 3060 3062 3064 3067 3069 3072 3072 3070 3072 3075 3078 3082 3086
3000 2999 2998 2997 2996 2994 2993 2992 2991 2989 2988 2987 2985 2985 2984 2983 2981 2980 2979 2976 2975 2974 2972 2971 2970 2969 2968 2968 2968 2971 2975 2977 2978 2979 2979 2980 2982 2984 2987 2991 2994 2995 2997 3002 3004 3006 3008 3010 3012 3016 3020 3022 3022 3022 3022 3025 3030 3033 3034 3037 3039 3041 3042 3042 3042 3044 3045 3047 3049 3050 3047 3046 3049 3053 3055 3058 3060 3062 3065 3068 3071 3072 3070 3069 3073 3077 3081 3085
3001 3000 2999 2997 2996 2995 2993 2992 2991 2990 2988 2987 2985 2985 2984 2983 2981 2979 2978 2976 2974 2973 2971 2970 2970 2969 2969 2970 2970 2971 2974 2977 2978 2978 2978 2979 2981 2983 2986 2990 2993 2995 2997 3001 3003 3005 3007 3009 3012 3014 3017 3018 3019 3021 3025 3028 3031 3032 3032 3033 3037 3039 3040 3040 3040 3040 3042 3043 3045 3048 3048 3046 3048 3052 3054 3056 3058 3061 3064 3066 3069 3073 3071 3067 3070 3075 3079 3083
3002 3001 3000 2998 2997 2995 2994 2993 2991 2990 2989 2987 2986 2986 2984 2982 2980 2978 2977 2975 2974 2972 2971 2969 2969 2969 2969 2971 2972 2972 2974 2977 2978 2977 2977 2979 2981 2983 2985 2989 2993 2995 2997 2999 3001 3004 3007 3009 3013 3015 3016 3018 3021 3024 3027 3028 3030 3033 3033 3033 3035 3037 3037 3037 3037 3038 3040 3042 3043 3046 3048 3047 3048 3051 3052 3055 3058 3061 3064 3065 3068 3072 3070 3066 3068 3073 3077 3081
3003 3002 3000 2999 2998 2996 2995 2993 2992 2991 2989 2988 2987 2986 2983 2981 2979 2977 2975 2974 2973 2971 2971 2970 2969 2970 2971 2973 2974 2973 2973 2976 2977 2977 2978 2980 2981 2983 2985 2989 2992 2995 2997 2999 3001 3004 3006 3008 3012 3016 3017 3019 3022 3025 3027 3028 3029 3031 3031 3031 3032 3034 3035 3036 3037 3038 3039 3041 3043 3044 3047 3047 3048 3049 3051 3055 3059 3061 3064 3065 3066 3068 3067 3067 3069 3072 3075 3078
3003 3002 3001 2999 2998 2997 2995 2993 2992 2991 2990 2988 2987 2985 2982 2980 2978 2976 2974 2973 2972 2971 2971 2970 2970 2971 2973 2974 2975 2974 2973 2975 2977 2977 2978 2980 2981 2983 2985 2989 2992 2994 2996 2998 3000 3002 3005 3008 3010 3013 3014 3016 3019 3021 3023 3024 3025 3025 3028 3030 3030 3031 3034 3036 3037 3039 3040 3041 3042 3042 3044 3046 3047 3050 3053 3056 3059 3060 3061 3063 3063 3064 3065 3067 3069 3071 3074 3077
3003 3002 3001 3000 2998 2996 2995 2994 2992 2990 2989 2987 2985 2984 2982 2980 2978 2976 2974 2972 2972 2972 2971 2971 2971 2972 2974 2975 2975 2974 2974 2975 2977 2978 2979 2980 2982 2983 2986 2989 2992 2994 2996 2999 3001 3002 3005 3008 3009 3010 3010 3011 3012 3013 3014 3018 3021 3023 3026 3028 3029 3029 3031 3034 3036 3037 3039 3041 3042 3041 3042 3045 3047 3050 3053 3055 3056 3057 3058 3059 3061 3063 3065 3067 3068 3070 3072 3075
3004 3002 3001 3000 2998 2996 2995 2993 2992 2990 2989 2987 2985 2983 2981 2980 2978 2977 2975 2974 2973 2973 2972 2972 2972 2973 2975 2976 2976 2976 2975 2976 2978 2979 2979 2980 2982 2984 2986 2990 2993 2995 2997 3000 3002 3003 3005 3008 3009 3009 3009 3009 3011 3012 3015 3019 3021 3022 3024 3027 3028 3029 3030 3032 3034 3036 3038 3041 3042 3041 3042 3044 3047 3049 3052 3054 3055 3056 3057 3058 3060 3063 3065 3066 3067 3069 3071 3073
3004 3003 3001 2999 2997 2996 2994 2994 2993 2991 2990 2989 2986 2984 2982 2981 2979 2978 2976 2975 2975 2974 2974 2974 2974 2975 2976 2976 2976 2976 2977 2978 2979 2979 2979 2981 2983 2984 2987 2991 2993 2995 2997 3000 3002 3004 3006 3007 3008 3009 3009 3010 3012 3013 3016 3019 3020 3021 3023 3025 3027 3030 3031 3031 3032 3035 3038 3040 3040 3041 3042 3044 3047 3049 3051 3053 3054 3055 3056 3057 3059 3061 3063 3064 3065 3067 3069 3072
3005 3003 3002 2999 2997 2995 2994 2993 2993 2991 2990 2990 2988 2985 2983 2982 2981 2979 2977 2977 2977 2976 2976 2975 2976 2976 2976 2976 2977 2977 2976 2978 2980 2980 2980 2982 2984 2985 2988 2991 2992 2994 2996 2999 3002 3004 3005 3006 3007 3008 3009 3009 3011 3013 3014 3017 3020 3022 3023 3023 3026 3029 3030 3030 3032 3036 3039 3039 3040 3041 3043 3045 3047 3049 3050 3051 3052 3053 3055 3057 3058 3059 3061 3063 3064 3066 3069 3071
3005 3003 3001 3000 2998 2995 2994 2993 2992 2991 2990 2989 2988 2986 2984 2983 2982 2980 2978 2978 2977 2977 2977 2977 2977 2978 2977 2976 2977 2978 2977 2977 2979 2980 2981 2983 2985 2986 2988 2990 2992 2994 2997 2999 3002 3004 3005 3006 3007 3009 3009 3009 3010 3012 3013 3016 3019 3021 3022 3023 3025 3028 3030 3030 3032 3036 3038 3039 3041 3042 3044 3045 3046 3049 3050 3050 3051 3053 3055 3057 3058 3059 3060 3062 3063 3066 3067 3069
3005 3002 3000 2998 2997 2995 2994 2993 2992 2991 2990 2989 2988 2987 2986 2984 2983 2981 2980 2979 2979 2978 2979 2979 2979 2979 2978 2976 2977 2978 2977 2977 2977 2978 2980 2982 2984 2986 2988 2989 2991 2994 2997 2999 3002 3003 3005 3006 3007 3009 3010 3010 3010 3011 3013 3015 3018 3019 3021 3023 3025 3027 3029 3030 3032 3034 3037 3038 3041 3042 3044 3045 3045 3047 3049 3049 3050 3052 3055 3056 3057 3059 3060 3061 3063 3064 3066 3068
3005 3003 3000 2998 2996 2994 2993 2992 2992 2991 2990 2990 2989 2988 2986 2986 2984 2983 2981 2981 2980 2979 2979 2979 2980 2979 2978 2977 2977 2977 2977 2977 2976 2977 2979 2981 2983 2987 2988 2989 2992 2994 2997 2999 3001 3003 3005 3006 3007 3008 3009 3010 3010 3010 3012 3015 3017 3018 3019 3021 3023 3025 3027 3028 3031 3033 3035 3038 3040 3041 3043 3044 3043 3045 3048 3049 3050 3052 3053 3055 3056 3057 3058 3060 3061 3063 3065 3066
3006 3004 3001 2998 2996 2995 2993 2992 2992 2992 2991 2991 2990 2988 2987 2986 2985 2983 2982 2981 2980 2980 2980 2980 2980 2979 2978 2978 2978 2977 2978 2978 2978 2979 2980 2982 2984 2987 2989 2991 2993 2995 2997 2999 3001 3004 3005 3006 3007 3008 3008 3010 3011 3011 3011 3014 3015 3016 3017 3020 3022 3023 3025 3028 3030 3032 3035 3037 3039 3041 3042 3042 3042 3045 3048 3049 3049 3051 3052 3054 3055 3055 3056 3057 3059 3061 3063 3064